AST,Max TemperatureF,Mean TemperatureF,Min TemperatureF,Max Dew PointF,MeanDew PointF,Min DewpointF,Max Humidity, Mean Humidity, Min Humidity, Max Sea Level PressureIn, Mean Sea Level PressureIn, Min Sea Level PressureIn, Max VisibilityMiles, Mean VisibilityMiles, Min VisibilityMiles, Max Wind SpeedMPH, Mean Wind SpeedMPH, Max Gust SpeedMPH,PrecipitationIn, CloudCover, Events, WindDirDegrees
2013-9-1,90,85,80,78,77,75,94,81,68,29.98,29.95,29.91,10,10,10,17,10,25,0.00,1,,85
2013-9-2,91,85,78,77,76,74,85,75,64,29.96,29.91,29.87,10,10,10,20,9,30,0.13,2,Rain,73
2013-9-3,91,85,78,80,76,73,94,79,64,29.93,29.89,29.85,10,10,10,30,11,43,0.21,2,,85
2013-9-4,83,81,78,81,79,76,100,90,79,29.94,29.89,29.85,10,10,10,21,9,29,1.40,5,Rain,93
2013-9-5,84,79,74,81,79,75,100,94,88,30.01,29.92,29.87,10,10,10,24,10,31,5.37,6,Rain,134
2013-9-6,85,80,75,81,78,74,100,91,82,29.99,29.94,29.90,10,10,10,16,8,21,0.73,4,Rain,127
2013-9-7,86,82,77,81,77,36,94,87,79,29.98,29.94,29.89,10,10,10,28,9,38,0.51,3,Rain,145
2013-9-8,87,81,74,80,78,73,100,88,75,29.98,29.94,29.90,10,10,10,26,9,31,0.53,3,Rain,156
2013-9-9,87,84,80,79,78,76,91,83,75,30.02,29.96,29.92,10,10,10,14,9,17,0.00,3,,130
2013-9-10,89,84,78,79,76,75,97,84,70,30.04,29.99,29.95,10,10,10,24,8,32,0.27,2,Rain,96
2013-9-11,89,83,77,78,76,75,100,84,68,30.01,29.96,29.91,10,10,10,21,8,26,0.22,3,Rain,77
2013-9-12,89,84,78,79,77,75,94,79,64,29.89,29.85,29.81,10,10,10,17,10,23,0.30,4,Rain,68
2013-9-13,89,85,80,77,76,74,85,74,63,29.85,29.80,29.74,10,10,10,15,8,24,0.00,1,,64
2013-9-14,88,84,79,80,77,76,91,82,72,29.97,29.88,29.82,10,10,10,10,7,20,T,0,Rain,114
2013-9-15,89,85,80,80,78,77,94,85,75,30.01,29.97,29.92,10,10,10,14,8,17,0.00,1,,118
2013-9-16,90,86,81,79,78,77,94,85,75,30.01,29.96,29.91,10,10,10,17,9,23,T,0,,103
2013-9-17,88,85,81,80,78,77,94,85,75,29.98,29.93,29.88,10,9,1,17,9,23,0.13,2,Rain,112
2013-9-18,89,85,80,81,79,77,94,83,72,29.97,29.92,29.88,10,10,0,15,9,21,0.02,2,Fog-Rain,118
2013-9-19,88,85,81,81,79,76,94,84,74,29.99,29.95,29.91,10,10,2,17,8,21,T,2,Rain,143
2013-9-20,88,86,83,81,79,77,88,82,75,29.96,29.92,29.86,10,10,10,12,7,14,0.00,2,,187
2013-9-21,89,86,83,81,79,78,88,82,75,29.92,29.88,29.84,10,10,2,12,6,14,0.00,2,,196
2013-9-22,88,85,81,79,77,72,88,79,69,29.99,29.94,29.88,10,10,2,9,6,,0.00,1,,144
2013-9-23,90,85,80,80,78,76,94,82,70,30.04,29.99,29.96,10,10,2,15,9,20,0.00,0,,111
2013-9-24,90,85,80,79,77,75,94,81,68,30.02,29.97,29.93,10,10,10,17,9,23,T,1,Rain,115
2013-9-25,90,85,80,77,75,74,85,75,64,29.96,29.93,29.88,10,10,2,15,8,20,0.00,0,,113
2013-9-26,90,85,80,77,76,75,91,80,68,29.95,29.92,29.86,10,10,2,15,8,20,0.00,1,,128
2013-9-27,89,85,81,77,77,76,91,78,64,29.97,29.93,29.88,10,10,3,10,8,15,0.00,2,,137
2013-9-28,89,85,80,79,77,75,85,77,68,29.99,29.95,29.90,10,9,2,13,8,16,0.00,1,,132
2013-9-29,90,85,80,79,78,77,94,82,70,30.01,29.96,29.90,10,9,2,16,9,22,0.00,1,,118
2013-9-30,90,87,83,79,78,76,88,79,70,30.04,29.99,29.95,10,10,10,16,10,21,0.00,1,,119